Location: UMBC
(39.2555°N, 76.7093°W)
Time: 00:07:56
(UTC+01:00)

Amateur Radio Satellites - All Passes

Search period start: 20 December 2014 23:37
Search period end: 21 December 2014 23:37
Location: UMBC, 39.2555°N, 76.7093°W

Satellite Date Start Highest point End Downlink Frequencies (MHz)
Time Altitude Azimuth
AO-7 20 Dec 23:48:58 23:50:32 11° 273° (W) 23:52:06 29.400- 29.500
MaSat-1 21 Dec 00:01:57 00:04:13 36° 63° (ENE) 00:06:37 437.345
Cubesat XI-IV 21 Dec 00:18:47 00:23:43 38° 262° (W) 00:28:40 437.490
PRISM 21 Dec 00:23:30 00:27:40 81° 103° (ESE) 00:31:47 437.425
CUSAT 1 21 Dec 00:40:07 00:44:25 15° 64° (ENE) 00:48:55 437.405
ISS 21 Dec 00:46:29 00:48:49 18° 22° (NNE) 00:51:09 145.825
GONETS M04 21 Dec 00:47:36 00:53:25 20° 281° (W) 00:59:12
CUTE-I 21 Dec 00:53:34 00:57:17 19° 267° (W) 01:01:02 437.470
BRITE-PL 21 Dec 00:56:18 00:57:12 11° 63° (ENE) 00:58:06 437.365/2234.400
CUTE 1.7 + AOD 2 21 Dec 00:59:52 01:01:14 11° 63° (ENE) 01:02:36 437.475
CUBESAT XI-V 21 Dec 01:00:06 01:04:44 86° 283° (WNW) 01:09:19 437.345
STRAND 1 21 Dec 01:09:06 01:14:13 89° 104° (ESE) 01:19:18 437.568
HO-68 21 Dec 01:20:17 01:26:52 41° 65° (ENE) 01:33:27 435.675
GOMX 1 21 Dec 01:21:28 01:23:46 15° 65° (ENE) 01:26:04 467.674
DANDE 21 Dec 01:29:58 01:36:38 31° 71° (ENE) 01:43:58 436.750
RS-15 21 Dec 01:41:13 01:51:51 45° 45° (NE) 02:02:51 29.354- 29.394
DOVE 4 21 Dec 01:45:59 01:49:00 20° 67° (ENE) 01:52:03 437.250
AAUSAT CUBESAT 2 21 Dec 01:48:47 01:52:13 25° 69° (ENE) 01:55:41 437.432
CANX-2 21 Dec 02:01:33 02:05:45 61° 75° (ENE) 02:10:00 2200.000
CINEMA 3 21 Dec 02:10:54 02:14:08 22° 68° (ENE) 02:17:25 145.822/145.860
CUSAT 1 21 Dec 02:20:42 02:28:31 73° 80° (E) 02:37:03 437.405
ISS 21 Dec 02:22:28 02:25:44 79° 220° (SW) 02:28:59 145.825
COMPASS 1 21 Dec 02:23:15 02:27:26 72° 76° (ENE) 02:31:41 437.405
SEEDS 21 Dec 02:28:49 02:33:04 82° 258° (WSW) 02:37:21 437.485
BRITE-PL 21 Dec 02:31:05 02:35:14 60° 259° (W) 02:39:20 437.365/2234.400
FUNcube-1 21 Dec 02:31:50 02:34:31 17° 66° (ENE) 02:37:13 145.935
UWE-3 21 Dec 02:32:15 02:35:19 20° 67° (ENE) 02:38:27 435.000/436.395/437.385
CUTE 1.7 + AOD 2 21 Dec 02:32:22 02:36:35 64° 259° (W) 02:40:52 437.475
DELFI C3 21 Dec 02:39:52 02:43:40 38° 72° (ENE) 02:47:30 145.870
DX 1 21 Dec 02:46:36 02:50:44 45° 72° (ENE) 02:54:52 434.975-435.025
AISAT 21 Dec 02:50:08 02:52:57 17° 65° (ENE) 02:55:46 437.250
BEESAT 3 21 Dec 02:50:11 02:52:19 14° 43° (NE) 02:54:27 437.485
STRAND 1 21 Dec 02:51:13 02:52:37 11° 301° (WNW) 02:54:01 437.568
SO-50 21 Dec 02:53:14 02:57:42 70° 119° (ESE) 03:02:21 436.795
GOMX 1 21 Dec 02:57:37 03:01:33 42° 261° (W) 03:05:31 467.674
HUMSAT D 21 Dec 03:04:40 03:07:54 22° 68° (ENE) 03:11:09 437.325/437.525
HO-68 21 Dec 03:08:00 03:14:32 38° 262° (W) 03:21:07 435.675
Oscar 11 21 Dec 03:08:47 03:13:06 80° 258° (WSW) 03:17:29 145.826/435.025
DANDE 21 Dec 03:12:44 03:20:23 62° 266° (W) 03:28:55 436.750
UKube-1 21 Dec 03:17:21 03:21:41 83° 256° (WSW) 03:26:03 .
DOVE 4 21 Dec 03:22:57 03:26:36 30° 264° (W) 03:30:18 437.250
AAUSAT CUBESAT 2 21 Dec 03:24:17 03:27:47 25° 265° (W) 03:31:19 437.432
BEESAT 2 21 Dec 03:29:06 03:32:41 26° 50° (NE) 03:36:13 435.950
CUBEBUG 2 21 Dec 03:29:25 03:33:34 76° 258° (WSW) 03:37:51 437.445
TIGRISAT 21 Dec 03:37:53 03:40:13 14° 91° (E) 03:42:33 435.000
ZACube-1 21 Dec 03:39:33 03:43:43 81° 258° (WSW) 03:48:00 437.345
CANX-2 21 Dec 03:41:19 03:42:05 10° 270° (W) 03:42:50 2200.000
VELOX 1 21 Dec 03:41:33 03:45:53 59° 74° (ENE) 03:50:14 145.980
ESTCUBE 1 21 Dec 03:45:08 03:48:52 26° 68° (ENE) 03:52:36 437.505/2401.250
CINEMA 3 21 Dec 03:47:39 03:51:12 27° 264° (W) 03:54:51 145.822/145.860
RS-15 21 Dec 03:53:37 04:04:35 58° 247° (WSW) 04:16:03 29.354- 29.394
YUBILEINY 21 Dec 04:02:39 04:06:27 14° 76° (ENE) 04:10:15 435.215
CUSAT 1 21 Dec 04:04:59 04:11:03 25° 274° (W) 04:17:28 437.405
BUGSAT 1 21 Dec 04:05:05 04:06:13 11° 91° (E) 04:07:21 437.445
DUCHIFAT 1 21 Dec 04:05:23 04:07:56 15° 93° (E) 04:10:29 145.980
UNISAT 6 21 Dec 04:05:41 04:09:44 28° 96° (E) 04:13:46 437.425
FUNcube-1 21 Dec 04:06:38 04:10:32 39° 262° (W) 04:14:31 145.935
UWE-3 21 Dec 04:07:56 04:11:39 31° 263° (W) 04:15:28 435.000/436.395/437.385
50 SAT 21 Dec 04:16:11 04:20:10 64° 259° (W) 04:24:11 437.505
DELFI C3 21 Dec 04:16:33 04:19:05 16° 267° (W) 04:21:37 145.870
QB50P2 21 Dec 04:18:21 04:21:44 22° 95° (E) 04:25:06 145.880/145.840
PCSat 21 Dec 04:19:08 04:24:09 37° 54° (NE) 04:29:07 145.827
DX 1 21 Dec 04:24:42 04:27:11 15° 267° (W) 04:29:40 434.975-435.025
AISAT 21 Dec 04:25:01 04:29:13 43° 261° (W) 04:33:27 437.250
BEESAT 3 21 Dec 04:26:50 04:30:59 71° 241° (WSW) 04:35:05 437.485
POLYITAN 1 21 Dec 04:26:58 04:30:41 28° 96° (E) 04:34:24 437.675
NANOSAT C BR1 21 Dec 04:29:04 04:32:47 29° 97° (E) 04:36:30 145.865
CUBEBUG 1 21 Dec 04:30:15 04:34:36 75° 76° (ENE) 04:38:58 437.445
AIST 2 21 Dec 04:34:19 04:38:34 56° 56° (NE) 04:42:43 435.215
SO-50 21 Dec 04:35:52 04:38:46 16° 318° (NW) 04:41:44 436.795
ANTELSAT 21 Dec 04:37:10 04:41:51 61° 101° (E) 04:46:31 437.575/2403.000
HUMSAT D 21 Dec 04:40:01 04:43:33 27° 264° (W) 04:47:08 437.325/437.525
QB50P1 21 Dec 04:43:15 04:47:18 42° 99° (E) 04:51:22 145.935-145.965
DANDE 21 Dec 05:00:52 05:02:43 11° 280° (W) 05:04:36 436.750
BEESAT 2 21 Dec 05:07:16 05:10:54 29° 247° (WSW) 05:14:28 435.950
POPSAT HIP 1 21 Dec 05:11:49 05:16:06 88° 284° (WNW) 05:20:22 437.405
TIGRISAT 21 Dec 05:12:40 05:17:17 58° 286° (WNW) 05:21:55 435.000
VELOX 1 21 Dec 05:21:14 05:22:49 12° 269° (W) 05:24:24 145.980
ESTCUBE 1 21 Dec 05:21:41 05:25:37 29° 264° (W) 05:29:33 437.505/2401.250
TISAT 1 21 Dec 05:33:46 05:37:58 87° 257° (WSW) 05:42:12 437.305
SPROUT 21 Dec 05:37:37 05:41:54 87° 258° (WSW) 05:46:12 437.525
BUGSAT 1 21 Dec 05:38:03 05:42:00 52° 286° (WNW) 05:45:58 437.445
DUCHIFAT 1 21 Dec 05:39:58 05:43:58 41° 288° (WNW) 05:47:58 145.980
UNISAT 6 21 Dec 05:42:24 05:46:26 29° 291° (WNW) 05:50:28 437.425
O/OREOS (USA 219) 21 Dec 05:47:57 05:51:30 24° 102° (ESE) 05:55:05 437.305
YUBILEINY 21 Dec 05:53:00 06:01:43 79° 94° (E) 06:10:27 435.215
QB50P2 21 Dec 05:53:56 05:57:37 29° 290° (WNW) 06:01:19 145.880/145.840
AUBIESAT-1 21 Dec 06:00:52 06:04:10 19° 60° (ENE) 06:07:29 437.475
PCSat 21 Dec 06:02:45 06:07:25 30° 251° (WSW) 06:12:03 145.827
POLYITAN 1 21 Dec 06:03:04 06:06:29 24° 292° (WNW) 06:09:54 437.675
NANOSAT C BR1 21 Dec 06:05:11 06:08:30 23° 292° (WNW) 06:11:49 145.865
AIST 2 21 Dec 06:14:39 06:16:40 13° 252° (WSW) 06:18:41 435.215
ANTELSAT 21 Dec 06:15:36 06:18:07 15° 296° (WNW) 06:20:38 437.575/2403.000
QB50P1 21 Dec 06:20:13 06:22:50 16° 294° (WNW) 06:25:28 145.935-145.965
SWISSCUBE 21 Dec 06:25:18 06:29:57 53° 73° (ENE) 06:34:38 437.505
M-CUBED/EXP-1 PRIME 21 Dec 06:25:23 06:29:43 34° 65° (ENE) 06:34:08 437.505
ITUPSAT 1 21 Dec 06:25:55 06:30:32 48° 72° (ENE) 06:35:09 437.325
BEESAT 21 Dec 06:50:06 06:54:54 88° 76° (ENE) 06:59:43 436.000
O/OREOS (USA 219) 21 Dec 07:26:50 07:30:45 30° 299° (WNW) 07:34:41 437.305
AUBIESAT-1 21 Dec 07:33:56 07:38:38 55° 255° (WSW) 07:43:27 437.475
VERMONT LUNAR 21 Dec 07:33:57 07:35:27 12° 144° (SE) 07:36:57 437.305
Oscar 19 21 Dec 07:42:10 07:47:24 80° 103° (ESE) 07:52:35 437.125/150
STARS 21 Dec 07:45:36 07:49:45 44° 72° (ENE) 07:53:56 437.465
KKS-1 21 Dec 07:49:38 07:54:03 76° 75° (ENE) 07:58:29 437.445
PHONESAT 2.4 21 Dec 07:49:55 07:50:43 11° 143° (SE) 07:51:31 2401.200-2431.200
YUBILEINY 21 Dec 07:53:16 07:59:29 21° 295° (WNW) 08:05:45 435.215
Gurwin Techsat 1B 21 Dec 07:55:57 08:00:13 24° 94° (E) 08:04:27 435.225
ITAMSAT 1 21 Dec 07:58:44 08:03:36 41° 99° (E) 08:08:27 435.822/435.867
M-CUBED/EXP-1 PRIME 21 Dec 08:00:34 08:04:40 28° 260° (W) 08:08:51 437.505
SWISSCUBE 21 Dec 08:05:19 08:08:06 15° 268° (W) 08:10:54 437.505
ITUPSAT 1 21 Dec 08:05:35 08:08:39 17° 267° (W) 08:11:44 437.325
AIST 1 21 Dec 08:37:38 08:40:31 17° 72° (ENE) 08:43:22
MOZHAYETS 4 21 Dec 09:03:23 09:05:57 15° 64° (ENE) 09:08:31
VERMONT LUNAR 21 Dec 09:09:50 09:13:16 51° 159° (SSE) 09:16:43 437.305
HORYU 2 21 Dec 09:13:04 09:17:30 52° 100° (E) 09:21:53 437.375
Oscar 19 21 Dec 09:23:46 09:26:01 13° 300° (WNW) 09:28:16 437.125/150
STARS 21 Dec 09:23:52 09:26:27 15° 267° (W) 09:29:02 437.465
PHONESAT 2.4 21 Dec 09:25:21 09:28:50 46° 157° (SSE) 09:32:20 2401.200-2431.200
Gurwin Techsat 1B 21 Dec 09:35:21 09:40:17 40° 290° (WNW) 09:45:11 435.225
ITAMSAT 1 21 Dec 09:38:48 09:42:49 24° 295° (WNW) 09:46:51 435.822/435.867
AO-7 21 Dec 09:50:59 09:58:57 45° 100° (E) 10:06:49 29.400- 29.500
GONETS M04 21 Dec 09:55:56 10:01:10 18° 78° (ENE) 10:06:23
AIST 1 21 Dec 10:14:24 10:18:17 34° 269° (W) 10:22:07
JAS-2 21 Dec 10:32:13 10:37:03 30° 95° (E) 10:41:36 435.910
MOZHAYETS 4 21 Dec 10:38:07 10:42:41 56° 260° (W) 10:47:16
STRAND 1 21 Dec 10:47:56 10:50:30 14° 61° (ENE) 10:53:04 437.568
VERMONT LUNAR 21 Dec 10:48:02 10:51:34 72° 355° (N) 10:55:06 437.305
HORYU 2 21 Dec 10:51:08 10:53:43 15° 296° (WNW) 10:56:17 437.375
PHONESAT 2.4 21 Dec 11:03:50 11:07:28 75° 353° (N) 11:11:06 2401.200-2431.200
PRISM 21 Dec 11:13:04 11:17:10 52° 73° (ENE) 11:21:17 437.425
SO-50 21 Dec 11:25:41 11:30:26 48° 54° (NE) 11:35:11 436.795
CUTE-I 21 Dec 11:30:47 11:34:48 22° 94° (E) 11:38:49 437.470
AO-7 21 Dec 11:43:57 11:51:34 41° 298° (WNW) 11:59:10 29.400- 29.500
GONETS M04 21 Dec 11:47:50 11:56:42 88° 276° (W) 12:05:35
CUBESAT XI-V 21 Dec 12:02:19 12:07:00 81° 76° (ENE) 12:11:40 437.345
JAS-2 21 Dec 12:17:17 12:22:09 31° 294° (WNW) 12:26:41 435.910
STRAND 1 21 Dec 12:23:58 12:29:03 72° 258° (WSW) 12:34:10 437.568
VERMONT LUNAR 21 Dec 12:26:27 12:29:59 90° 192° (SSW) 12:33:31 437.305
Cubesat XI-IV 21 Dec 12:36:38 12:41:59 88° 284° (WNW) 12:47:18 437.490
PHONESAT 2.4 21 Dec 12:42:38 12:46:17 85° 11° (N) 12:49:55 2401.200-2431.200
PRISM 21 Dec 12:51:13 12:52:59 12° 268° (W) 12:54:44 437.425
SO-50 21 Dec 13:07:05 13:10:39 20° 250° (WSW) 13:14:13 436.795
CUTE-I 21 Dec 13:10:01 13:15:03 45° 290° (WNW) 13:20:04 437.470
GONETS M04 21 Dec 13:49:16 13:54:48 18° 297° (WNW) 14:00:23
CANX-2 21 Dec 13:50:26 13:52:01 12° 90° (E) 13:53:36 2200.000
VERMONT LUNAR 21 Dec 14:05:02 14:08:05 28° 208° (SSW) 14:11:09 437.305
COMPASS 1 21 Dec 14:10:14 14:12:11 13° 91° (E) 14:14:07 437.405
SEEDS 21 Dec 14:15:43 14:18:42 18° 93° (E) 14:21:40 437.485
CUTE 1.7 + AOD 2 21 Dec 14:19:33 14:23:02 24° 95° (E) 14:26:30 437.475
Cubesat XI-IV 21 Dec 14:19:35 14:21:15 12° 301° (WNW) 14:22:56 437.490
PHONESAT 2.4 21 Dec 14:21:31 14:24:48 32° 207° (SSW) 14:28:05 2401.200-2431.200
BRITE-PL 21 Dec 14:35:40 14:40:14 44° 99° (E) 14:45:08 437.365/2234.400
HO-68 21 Dec 14:36:07 14:42:56 46° 100° (E) 14:49:42 435.675
TIGRISAT 21 Dec 14:37:56 14:38:44 10° 61° (ENE) 14:39:32 435.000
DANDE 21 Dec 14:46:02 14:48:20 16° 82° (E) 14:51:00 436.750
MaSat-1 21 Dec 14:51:47 14:53:57 35° 297° (WNW) 14:56:03 437.345
Oscar 11 21 Dec 14:58:11 15:01:25 20° 94° (E) 15:04:38 145.826/435.025
GOMX 1 21 Dec 14:59:07 15:03:51 56° 100° (E) 15:08:54 467.674
DUCHIFAT 1 21 Dec 14:59:12 15:00:19 11° 63° (ENE) 15:01:26 145.980
UNISAT 6 21 Dec 15:04:36 15:07:55 21° 67° (ENE) 15:11:17 437.425
UKube-1 21 Dec 15:07:24 15:10:20 18° 94° (E) 15:13:15 .
AAUSAT CUBESAT 2 21 Dec 15:08:10 15:12:20 53° 100° (E) 15:16:27 437.432
QB50P2 21 Dec 15:11:38 15:14:12 16° 66° (ENE) 15:16:46 145.880/145.840
POLYITAN 1 21 Dec 15:20:10 15:23:12 20° 67° (ENE) 15:26:15 437.675
DOVE 4 21 Dec 15:21:34 15:26:23 71° 102° (ESE) 15:31:28 437.250
NANOSAT C BR1 21 Dec 15:21:45 15:24:49 20° 67° (ENE) 15:27:54 145.865
CUBEBUG 2 21 Dec 15:21:55 15:25:48 26° 95° (E) 15:29:43 437.445
CANX-2 21 Dec 15:24:03 15:28:18 56° 286° (WNW) 15:32:30 2200.000
ZACube-1 21 Dec 15:29:58 15:33:31 22° 94° (E) 15:37:04 437.345
CUSAT 1 21 Dec 15:32:17 15:35:50 82° 98° (E) 15:40:40 437.405
ANTELSAT 21 Dec 15:35:34 15:39:43 45° 72° (ENE) 15:44:01 437.575/2403.000
VELOX 1 21 Dec 15:35:36 15:37:20 12° 91° (E) 15:39:03 145.980
QB50P1 21 Dec 15:35:39 15:39:16 28° 70° (ENE) 15:42:53 145.935-145.965
CINEMA 3 21 Dec 15:42:16 15:47:02 70° 101° (ESE) 15:51:58 145.822/145.860
COMPASS 1 21 Dec 15:44:03 15:48:11 49° 286° (WNW) 15:52:16 437.405
SEEDS 21 Dec 15:50:42 15:54:37 35° 289° (WNW) 15:58:31 437.485
CUTE 1.7 + AOD 2 21 Dec 15:55:14 15:58:55 28° 290° (WNW) 16:02:35 437.475
FUNcube-1 21 Dec 15:55:55 16:00:13 41° 98° (E) 16:04:33 145.935
DELFI C3 21 Dec 15:56:25 16:00:34 80° 102° (ESE) 16:04:39 145.870
O/OREOS (USA 219) 21 Dec 15:58:00 16:02:15 39° 64° (ENE) 16:06:30 437.305
UWE-3 21 Dec 15:58:14 16:02:45 53° 100° (E) 16:07:19 435.000/436.395/437.385
50 SAT 21 Dec 15:58:24 16:01:23 19° 94° (E) 16:04:20 437.505
POPSAT HIP 1 21 Dec 16:03:49 16:07:57 60° 74° (ENE) 16:12:07 437.405
YUBILEINY 21 Dec 16:04:53 16:12:47 37° 73° (ENE) 16:20:37 435.215
RS-15 21 Dec 16:06:30 16:14:46 26° 102° (ESE) 16:22:58 29.354- 29.394
TIGRISAT 21 Dec 16:10:28 16:14:48 74° 258° (WSW) 16:19:16 435.000
DX 1 21 Dec 16:12:00 16:16:21 81° 284° (WNW) 16:20:41 434.975-435.025
BRITE-PL 21 Dec 16:15:05 16:18:29 20° 292° (WNW) 16:22:04 437.365/2234.400
AISAT 21 Dec 16:17:11 16:21:18 37° 98° (E) 16:25:25 437.250
CUBEBUG 1 21 Dec 16:21:57 16:24:23 15° 92° (E) 16:26:49 437.445
HO-68 21 Dec 16:24:10 16:30:25 34° 297° (WNW) 16:36:38 435.675
HUMSAT D 21 Dec 16:24:55 16:29:09 50° 100° (E) 16:33:22 437.325/437.525
BUGSAT 1 21 Dec 16:27:08 16:31:14 89° 257° (WSW) 16:35:19 437.445
DANDE 21 Dec 16:28:16 16:31:21 27° 291° (WNW) 16:35:16 436.750
DUCHIFAT 1 21 Dec 16:31:28 16:35:37 64° 259° (W) 16:39:48 145.980
Oscar 11 21 Dec 16:33:43 16:37:39 33° 289° (WNW) 16:41:33 145.826/435.025
GOMX 1 21 Dec 16:38:38 16:41:36 17° 294° (WNW) 16:44:40 467.674
UNISAT 6 21 Dec 16:40:33 16:44:29 33° 263° (W) 16:48:32 437.425
UKube-1 21 Dec 16:42:36 16:46:36 38° 289° (WNW) 16:50:36 .
AAUSAT CUBESAT 2 21 Dec 16:45:34 16:47:31 13° 296° (WNW) 16:49:27 437.432
QB50P2 21 Dec 16:45:46 16:49:45 42° 261° (W) 16:53:47 145.880/145.840
POLYITAN 1 21 Dec 16:55:07 16:58:54 33° 263° (W) 17:02:44 437.675
NANOSAT C BR1 21 Dec 16:56:43 17:00:29 32° 263° (W) 17:04:16 145.865
CUBEBUG 2 21 Dec 16:58:22 17:02:27 31° 290° (WNW) 17:06:35 437.445
DOVE 4 21 Dec 17:01:24 17:03:38 13° 296° (WNW) 17:05:56 437.250
ZACube-1 21 Dec 17:05:49 17:09:54 34° 289° (WNW) 17:14:02 437.345
VELOX 1 21 Dec 17:09:54 17:14:15 57° 286° (WNW) 17:18:34 145.980
QB50P1 21 Dec 17:11:51 17:15:08 22° 265° (W) 17:18:26 145.935-145.965
ANTELSAT 21 Dec 17:14:15 17:16:47 15° 269° (W) 17:19:21 437.575/2403.000
ESTCUBE 1 21 Dec 17:14:56 17:19:25 63° 101° (ESE) 17:23:51 437.505/2401.250
TISAT 1 21 Dec 17:21:08 17:23:46 16° 93° (E) 17:26:23 437.305
CINEMA 3 21 Dec 17:21:30 17:23:42 13° 296° (WNW) 17:25:56 145.822/145.860
Oscar 19 21 Dec 17:22:17 17:24:29 13° 60° (ENE) 17:26:40 437.125/150
SPROUT 21 Dec 17:26:37 17:29:32 18° 93° (E) 17:32:27 437.525
50 SAT 21 Dec 17:32:56 17:36:39 32° 289° (WNW) 17:40:22 437.505
FUNcube-1 21 Dec 17:33:05 17:36:15 19° 293° (WNW) 17:39:26 145.935
UWE-3 21 Dec 17:36:09 17:38:51 16° 295° (WNW) 17:41:34 435.000/436.395/437.385
O/OREOS (USA 219) 21 Dec 17:38:14 17:41:19 18° 260° (W) 17:44:24 437.305
POPSAT HIP 1 21 Dec 17:43:41 17:44:13 10° 270° (W) 17:44:46 437.405
AISAT 21 Dec 17:54:28 17:57:39 20° 294° (WNW) 18:00:51 437.250
CUBEBUG 1 21 Dec 17:56:51 18:00:58 45° 287° (WNW) 18:05:06 437.445
YUBILEINY 21 Dec 18:01:32 18:09:40 46° 272° (W) 18:17:47 435.215
HUMSAT D 21 Dec 18:02:08 18:04:31 15° 295° (WNW) 18:06:54 437.325/437.525
RS-15 21 Dec 18:14:53 18:25:51 79° 303° (WNW) 18:36:52 29.354- 29.394
BEESAT 3 21 Dec 18:20:53 18:24:21 27° 113° (ESE) 18:27:53 437.485
SWISSCUBE 21 Dec 18:28:26 18:31:04 15° 92° (E) 18:33:41 437.505
ITUPSAT 1 21 Dec 18:29:31 18:31:50 13° 91° (E) 18:34:08 437.325
AIST 2 21 Dec 18:33:24 18:35:55 16° 109° (ESE) 18:38:27 435.215
BEESAT 21 Dec 18:52:16 18:56:08 24° 95° (E) 18:59:59 436.000
ESTCUBE 1 21 Dec 18:53:51 18:55:43 13° 297° (WNW) 18:57:36 437.505/2401.250
TISAT 1 21 Dec 18:55:48 18:59:44 39° 288° (WNW) 19:03:41 437.305
Oscar 19 21 Dec 18:57:58 19:03:06 80° 257° (WSW) 19:08:18 437.125/150
PCSat 21 Dec 18:59:46 19:04:47 40° 111° (ESE) 19:09:49 145.827
BEESAT 2 21 Dec 19:00:47 19:04:51 70° 119° (ESE) 19:09:01 435.950
SPROUT 21 Dec 19:01:47 19:05:44 37° 288° (WNW) 19:09:42 437.525
ISS 21 Dec 19:02:25 19:05:40 58° 138° (SE) 19:08:55 145.825
AO-7 21 Dec 19:02:55 19:05:40 12° 45° (NE) 19:08:25 29.400- 29.500
JUGNU 21 Dec 19:07:54 19:09:24 11° 179° (S) 19:10:55 437.505
ITAMSAT 1 21 Dec 19:15:38 19:20:41 57° 72° (ENE) 19:25:45 435.822/435.867
Gurwin Techsat 1B 21 Dec 19:15:55 19:20:40 35° 69° (ENE) 19:25:26 435.225
AUBIESAT-1 21 Dec 19:20:16 19:22:00 12° 94° (E) 19:23:40 437.475
KKS-1 21 Dec 19:43:17 19:46:04 16° 93° (E) 19:48:50 437.445
M-CUBED/EXP-1 PRIME 21 Dec 19:44:59 19:48:39 27° 100° (E) 19:52:02 437.505
BEESAT 3 21 Dec 19:58:57 20:02:28 27° 310° (NW) 20:06:03 437.485
SWISSCUBE 21 Dec 20:04:36 20:09:15 54° 287° (WNW) 20:13:51 437.505
ITUPSAT 1 21 Dec 20:05:23 20:10:05 59° 287° (WNW) 20:14:45 437.325
AIST 2 21 Dec 20:10:01 20:14:07 48° 305° (NW) 20:18:17 435.215
HORYU 2 21 Dec 20:10:38 20:14:50 42° 71° (ENE) 20:19:05 437.375
SRMSAT 21 Dec 20:13:19 20:14:31 11° 177° (S) 20:15:44 437.500
BEESAT 21 Dec 20:29:45 20:33:59 33° 291° (WNW) 20:38:13 436.000
RS-15 21 Dec 20:31:31 20:40:16 27° 330° (NNW) 20:49:10 29.354- 29.394
ISS 21 Dec 20:39:53 20:42:28 21° 336° (NNW) 20:45:03 145.825
BEESAT 2 21 Dec 20:41:24 20:43:34 14° 317° (NW) 20:45:46 435.950
PCSat 21 Dec 20:43:37 20:48:17 29° 309° (NW) 20:52:58 145.827
JAS-2 21 Dec 20:43:45 20:48:18 18° 60° (ENE) 20:52:38 435.910
AO-7 21 Dec 20:48:35 20:56:37 56° 66° (ENE) 21:04:42 29.400- 29.500
AUBIESAT-1 21 Dec 20:53:12 20:57:22 50° 292° (WNW) 21:01:09 437.475
Gurwin Techsat 1B 21 Dec 20:56:08 21:00:38 28° 265° (W) 21:05:09 435.225
ITAMSAT 1 21 Dec 20:57:20 21:00:30 16° 268° (W) 21:03:42 435.822/435.867
AIST 1 21 Dec 21:08:20 21:09:34 11° 84° (E) 21:10:47
STARS 21 Dec 21:12:47 21:17:14 77° 285° (WNW) 21:21:40 437.465
KKS-1 21 Dec 21:18:39 21:22:54 44° 288° (WNW) 21:27:08 437.445
M-CUBED/EXP-1 PRIME 21 Dec 21:20:03 21:23:32 24° 298° (WNW) 21:26:47 437.505
HORYU 2 21 Dec 21:48:48 21:51:41 17° 267° (W) 21:54:35 437.375
GONETS M04 21 Dec 21:59:50 22:08:08 44° 75° (ENE) 22:16:17
Cubesat XI-IV 21 Dec 22:20:07 22:23:31 18° 62° (ENE) 22:26:56 437.490
JAS-2 21 Dec 22:24:52 22:32:34 90° 76° (ENE) 22:39:37 435.910
MOZHAYETS 4 21 Dec 22:34:40 22:38:57 37° 97° (E) 22:43:11
AIST 1 21 Dec 22:42:21 22:46:40 56° 280° (W) 22:50:58
AO-7 21 Dec 22:42:31 22:49:40 32° 263° (W) 22:56:54 29.400- 29.500
RS-15 21 Dec 22:51:22 22:58:12 18° 6° (N) 23:05:10 29.354- 29.394
CUTE-I 21 Dec 22:51:32 22:56:14 33° 68° (ENE) 23:00:55 437.470
